Regional Weather Roundup
Issued by NWS Grand Forks, ND

Home | Current Version | Previous Version | Text Only | Print | Product List | Glossary Off
Versions: 1 2 3 4 5 6 7 8 9 10 11 12 13 14 15 16 17 18 19 20 21 22 23 24 25 26 27 28 29 30 31 32 33 34 35 36 37 38 39 40 41 42 43 44 45 46 47 48 49 50

759
ASUS43 KFGF 251410
RWRFGF
PRAIRIE TO PINES  WEATHER ROUNDUP
NATIONAL WEATHER SERVICE EASTERN NORTH DAKOTA/GRAND FORKS ND
900 AM CDT MON JUL 25 2016

 **SATELLITE DATA USED TO AUGMENT SKY COVER AT AUTOMATED STATIONS**
 *****  WEATHER ACROSS EASTERN NORTH DAKOTA  *****

CITY           SKY/WX    TMP DP  RH WIND       PRES   REMARKS
GRAND FORKS    MOSUNNY   73  62  68 W3        30.01R
GRAND FRKS AFB SUNNY     74  62  64 W2        30.02R
GRAND FRKS NWS   N/A     70 N/A N/A W1          N/A
DEVILS LAKE    SUNNY     72  64  76 E5        30.02F
FARGO          SUNNY     72  60  66 CALM      30.04S
WAHPETON ARPT  SUNNY     70  61  73 SW5       30.08R
$$

 ***** WEATHER ACROSS CENTRAL AND WESTERN NORTH DAKOTA  *****

CITY           SKY/WX    TMP DP  RH WIND       PRES   REMARKS
BISMARCK       SUNNY     71  62  73 SE5       30.00S
MINOT          SUNNY     73  59  61 SE6       29.97F
JAMESTOWN      MOSUNNY   70  64  81 S6        30.03F
MINOT AFB      SUNNY     69  61  74 SE7       29.97S
GARRISON         N/A     69  62  78 SE5       29.98S
WILLISTON      SUNNY     70  58  65 CALM      29.97S
DICKINSON      SUNNY     70  55  59 SW6       29.99R
HETTINGER      SUNNY     74  53  48 S7        30.04R
$$

 *****  OTHER AIRPORT OBSERVATIONS IN OUR AREA  *****

CITY           SKY/WX    TMP DP  RH WIND       PRES   REMARKS
WALHALLA       NOT AVBL
GRAFTON AIRPOR FAIR      72  63  73 W3        30.02S
VALLEY CITY AR FAIR      70  64  83 S3        30.07S
CANDO          NOT AVBL
CAVALIER APRT  FAIR      72  63  73 W6        30.00S
GWINNER        FAIR      72  64  78 S6        30.07F
SHEYENNE NWR     N/A     72  62  72 SW5       29.95
ROLLA          FAIR      68  59  73 CALM      30.03S
 ***** THE ABOVE OBSERVATIONS ARE NON NWS ARE NOT QUALITY
       CONTROLLED AND MAY MIS-REPORT RAIN FOR SNOW...
$$

  *****  WEATHER ACROSS NORTHERN MINNESOTA  *****

CITY           SKY/WX    TMP DP  RH WIND       PRES   REMARKS
FLAG ISLAND    SUNNY     70  59  68 W5        29.97S
WARROAD        NOT AVBL
ROSEAU         SUNNY     70  64  83 W6        30.00S
HALLOCK        SUNNY     68  63  83 CALM      29.99S
THF RVR FALLS  SUNNY     68  62  81 CALM      30.03F
BAUDETTE       SUNNY     70  62  76 W7        30.00R
WASKISH        SUNNY     72  64  78 W6        30.02S
CROOKSTON      SUNNY     70  61  73 CALM      30.03R
STEPHEN NDAWN    N/A     72  63  73 NW1         N/A
GREENBUSH NDAW   N/A     70  64  83 W5          N/A
$$
  *****  WEATHER ACROSS CENTRAL AND WEST MINNESOTA  *****

CITY           SKY/WX    TMP DP  RH WIND       PRES   REMARKS
FOSSTON        SUNNY     66  61  82 CALM      30.05S
BEMIDJI        SUNNY     68  61  77 W6        30.05R
PARK RAPIDS    SUNNY     71  61  70 VRB3      30.06S
ELBOW LAKE     FAIR      70  62  75 CALM      30.08S
WADENA         SUNNY     70  63  78 W3        30.07S
DETROIT LAKES  SUNNY     70  59  68 CALM      30.08R
MOORHEAD       SUNNY     68  61  77 CALM      30.06R
FERGUS FALLS   SUNNY     70  61  73 CALM      30.08S
MORRIS MN      SUNNY     73  63  68 CALM      30.08R
STAPLES        SUNNY     70  61  73 W5        30.07S
$$
  *****  WEATHER ELSEWHERE ACROSS MINNESOTA  *****

CITY           SKY/WX    TMP DP  RH WIND       PRES   REMARKS
DULUTH         MOSUNNY   71  62  73 NW10      30.02R
INTRNTL FALLS  SUNNY     69  63  81 W8        30.00R
ELY            MOSUNNY   68  57  68 W12       30.00R
CLOQUET        SUNNY     72  61  68 W6        30.03S
WHEATON        NOT AVBL
BRAINERD       SUNNY     70  61  73 NW6       30.07R
HIBBING        SUNNY     68  60  75 NW12      30.03R
ALEXANDRIA     SUNNY     72  59  63 W5        30.10S
SAINT CLOUD    SUNNY     73  63  70 VRB5      30.08R
MINNEAPOLIS    SUNNY     75  61  61 W7        30.07R
$$

  *****  WEATHER ACROSS SOUTH DAKOTA  *****

CITY           SKY/WX    TMP DP  RH WIND       PRES   REMARKS
SIOUX FALLS    MOSUNNY   74  63  68 CALM      30.12S
BROOKINGS      SUNNY     71  62  73 CALM      30.12S
WATERTOWN      SUNNY     73  62  68 S5        30.12R
HURON          SUNNY     73  62  68 VRB3      30.09S
SISSETON         N/A     76  64  66 E3        30.07R
ABERDEEN       MOSUNNY   70  60  70 S6        30.08R
MITCHELL       SUNNY     73  64  73 S6        30.12R
PIERRE         SUNNY     77  59  53 S8        30.06S
MOBRIDGE       SUNNY     77  60  55 S8        30.02S
RAPID CITY     SUNNY     73  57  57 S21       30.09S
$$

  *****  SOME WEATHER IN NEARBY STATES *****

CITY           SKY/WX    TMP DP  RH WIND       PRES   REMARKS
GLASGOW MT     SUNNY     68  56  65 CALM      29.98S
GREAT FALLS MT SUNNY     65  44  46 SW6       30.09S
CHEYENNE WY    SUNNY     64  55  72 S3        30.24S
SCOTTSBLUFF NE SUNNY     66  56  70 SE12      30.18R
OMAHA NE       MOSUNNY   72  65  78 NW3       30.11S
DES MOINES IA  MOSUNNY   78  65  63 N7        30.08S
DAVENPORT IA   MOSUNNY   74  67  78 N7        30.04F
CHICAGO IL     PTSUNNY   78  65  63 N13       29.99R
EAU CLAIRE WI  SUNNY     72  63  73 W5        30.04R
LA CROSSE WI   SUNNY     76  63  64 MISG      30.05R
$$

  *****  SOME NATIONAL WEATHER *****

CITY           SKY/WX    TMP DP  RH WIND       PRES   REMARKS
LA GUARDIA NY  PTSUNNY   83  72  69 S13       29.92F
RALEIGH NC     MOSUNNY   86  76  71 SW9       30.05F HX  96
ATLANTA GA     MOSUNNY   87  71  58 NW5       30.10S HX  93
NEW ORLEANS LA PTSUNNY   85  77  77 N6        29.99S THUNDER HX  95
OKLAHOMA CITY  MOSUNNY   84  69  60 NE7       30.03S
ALBUQUERQUE NM CLOUDY    76  52  43 CALM      30.27R
SALT LAKE CITY MOSUNNY   76  43  30 SE7       30.07R
LOS ANGELES CA MOSUNNY   70  65  84 SW3       29.94R
BOISE ID       SUNNY     68  39  34 SE3       30.02S
SEATTLE WA     MOSUNNY   65  57  75 SE3       30.08R
$$

*** WEATHER ACROSS MANITOBA...SASKATCHEWAN AND ONTARIO ***
                ***ONTARIO***

CITY           SKY/WX    TMP DP  RH WIND       PRES   REMARKS
GERALDTON      CLOUDY    63  59  88 NW12      29.77R
THUNDER BAY    MOSUNNY   72  59  64 NW12G18   29.88R
SIOUX LOOKOUT  MOSUNNY   66  61  82 NW10      29.92R
TORONTO        CLOUDY    75  72  88 W6        29.84R
BIG TROUT LK   CLOUDY    59  57  94 NW14G24   29.72R
PICKLE LAKE    PTSUNNY   64  59  82 NW10G18   29.82R
DRYDEN         SUNNY     66  59  77 W8        29.95R
KENORA         MOSUNNY   68  61  77 W7        29.97S
$$
                *** MANITOBA***

CITY           SKY/WX    TMP DP  RH WIND       PRES   REMARKS
BRANDON        SUNNY     66  61  82 NW5       29.99F
DAUPHIN        SUNNY     70  61  73 W10       29.94S
ISLAND LAKE    MOSUNNY   68  63  83 SW7       29.79F
PILOT MOUND      N/A     66  61  82 SW3         N/A
THE PAS        MOSUNNY   68  57  68 W13       29.81S
THOMPSON       LGT RAIN  63  59  88 SW6       29.67R
WINNIPEG       SUNNY     70  63  78 W8        29.97S
LYNN LAKE      CLOUDY    61  54  77 MISG      29.68R
CHURCHILL      CLOUDY    50  50 100 SE12      29.69F FOG
GILLAM         MOSUNNY   61  55  82 S7        29.70F
$$
                ***SASKATCHEWAN***

CITY           SKY/WX    TMP DP  RH WIND       PRES   REMARKS
ESTEVAN        MOSUNNY   68  61  77 E7        29.99R
KINDERSLEY     MOSUNNY   64  57  77 NE8       30.03R
LLOYDMINSTER   SUNNY     61  55  82 W8        30.04R
PRINCE ALBERT  MOSUNNY   66  61  82 NW9       29.96R
REGINA         MOSUNNY   66  57  72 SE7       29.98F
YORKTON        SUNNY     66  57  72 VRB3      29.98R
N. BATTLEFORD  SUNNY     64  57  77 NW8       30.03R
LA RONGE       MOSUNNY   63  52  67 W12G18    29.90R
SASKATOON      PTSUNNY   63  61  94 VRB2      30.01F
SWIFT CURRENT  SUNNY     64  57  77 W5        30.01R
$$
NOTE: THESE ARE AUTOMATED STATIONS WITH LIMITED QUALITY CONTROL
      "FAIR" INDICATES FEW OR NO CLOUDS BELOW 12,000 FEET WITH NO
      SIGNIFICANT WEATHER AND/OR OBSTRUCTIONS TO VISIBILITY.
      SKY/WX - SKY CONDITION AND SIGNIFICANT WEATHER.
      TMP - AIR TEMPERATURE.    DP   - DEWPOINT TEMPERATURE.
      RH  - RELATIVE HUMIDITY.  PRES - PRESSURE.
      HX  - HEAT INDEX.         WCI  - WIND CHILL INDEX.
$




USA.gov is the U.S. government's official web portal to all federal, state and local government web resources and services.